Location: Unspecified
(0.0000°N, 0.0000°E)
Time: 04:06:41
(UTC+00:00)

Vanguard 2 - Pass Details

Date: 13 December 2017
Orbit: 553 x 2939 km, 32.9° (Epoch: 20 April)

Event Time Altitude Azimuth Distance (km) Brightness Sun altitude
Rises 08:06:23 0° 221° (SW) 6,616 12.2 30.1°
Reaches altitude 10° 08:11:56 10° 210° (SSW) 5,734 12.0 31.3°
Maximum altitude 08:26:06 28° 158° (SSE) 4,297 12.4 34.4°
Drops below altitude 10° 08:38:24 10° 105° (ESE) 5,015 12.9 37.1°
Sets 08:42:43 0° 93° (E) 5,697 12.7 38.1°
